TimeCDT,TemperatureF,Dew PointF,Humidity,Sea Level PressureIn,VisibilityMPH,Wind Direction,Wind SpeedMPH,Gust SpeedMPH,PrecipitationIn,Events,Conditions,WindDirDegrees,DateUTC
12:10 AM,53.6,32.0,44,29.62,10.0,South,12.7,16.1,N/A,,Clear,170,2014-04-01 05:10:00
12:30 AM,53.6,33.8,47,29.61,10.0,South,10.4,17.3,N/A,,Clear,170,2014-04-01 05:30:00
12:50 AM,53.6,33.8,47,29.60,10.0,South,10.4,18.4,N/A,,Scattered Clouds,170,2014-04-01 05:50:00
1:10 AM,51.8,33.8,50,29.60,10.0,South,9.2,-,N/A,,Scattered Clouds,170,2014-04-01 06:10:00
1:30 AM,51.8,35.6,54,29.60,10.0,South,11.5,-,N/A,,Scattered Clouds,180,2014-04-01 06:30:00
1:50 AM,51.8,35.6,54,29.59,10.0,South,10.4,16.1,N/A,,Mostly Cloudy,170,2014-04-01 06:50:00
2:10 AM,51.8,35.6,54,29.59,10.0,South,10.4,19.6,N/A,,Mostly Cloudy,190,2014-04-01 07:10:00
2:30 AM,51.8,37.4,58,29.60,10.0,SSW,11.5,18.4,N/A,,Overcast,210,2014-04-01 07:30:00
2:50 AM,51.8,37.4,58,29.60,10.0,SW,15.0,25.3,N/A,,Overcast,230,2014-04-01 07:50:00
3:10 AM,48.2,30.2,50,29.61,10.0,WSW,15.0,26.5,N/A,,Overcast,240,2014-04-01 08:10:00
3:30 AM,44.6,30.2,57,29.61,10.0,SW,16.1,24.2,N/A,,Scattered Clouds,230,2014-04-01 08:30:00
3:50 AM,42.8,28.4,57,29.60,10.0,SW,16.1,21.9,N/A,,Clear,230,2014-04-01 08:50:00
4:10 AM,41.0,28.4,61,29.60,10.0,SW,12.7,16.1,N/A,,Clear,220,2014-04-01 09:10:00
4:30 AM,41.0,24.8,53,29.60,10.0,SSW,18.4,25.3,N/A,,Clear,210,2014-04-01 09:30:00
4:50 AM,37.4,26.6,65,29.61,10.0,WSW,19.6,26.5,N/A,,Clear,240,2014-04-01 09:50:00
5:10 AM,33.8,23.0,65,29.62,10.0,WSW,13.8,27.6,N/A,,Clear,240,2014-04-01 10:10:00
5:30 AM,33.8,24.8,70,29.62,10.0,SW,16.1,20.7,N/A,,Scattered Clouds,230,2014-04-01 10:30:00
5:50 AM,33.8,24.8,70,29.63,10.0,SW,16.1,20.7,N/A,,Overcast,220,2014-04-01 10:50:00
6:10 AM,32.0,23.0,69,29.63,10.0,SW,10.4,17.3,N/A,,Overcast,230,2014-04-01 11:10:00
6:30 AM,32.0,24.8,75,29.64,10.0,SW,15.0,25.3,N/A,,Overcast,230,2014-04-01 11:30:00
6:50 AM,32.0,23.0,69,29.65,10.0,SW,10.4,-,N/A,,Overcast,230,2014-04-01 11:50:00
7:10 AM,32.0,23.0,69,29.66,10.0,WSW,15.0,24.2,N/A,,Overcast,240,2014-04-01 12:10:00
7:30 AM,32.0,23.0,69,29.67,10.0,WSW,15.0,25.3,N/A,,Overcast,240,2014-04-01 12:30:00
7:50 AM,32.0,21.2,64,29.67,10.0,WSW,21.9,31.1,N/A,,Overcast,240,2014-04-01 12:50:00
8:10 AM,30.2,21.2,69,29.68,10.0,SW,17.3,25.3,N/A,,Overcast,230,2014-04-01 13:10:00
8:30 AM,30.2,21.2,69,29.68,10.0,WSW,17.3,29.9,N/A,,Overcast,250,2014-04-01 13:30:00
8:50 AM,30.2,19.4,64,29.70,10.0,WSW,19.6,25.3,N/A,,Overcast,250,2014-04-01 13:50:00
9:10 AM,28.4,19.4,69,29.70,10.0,WSW,16.1,28.8,N/A,,Overcast,240,2014-04-01 14:10:00
9:30 AM,28.4,19.4,69,29.71,10.0,WSW,16.1,28.8,N/A,,Overcast,240,2014-04-01 14:30:00
9:50 AM,28.4,19.4,69,29.71,10.0,WSW,12.7,23.0,N/A,,Overcast,240,2014-04-01 14:50:00
10:10 AM,28.4,19.4,69,29.72,10.0,WSW,16.1,26.5,N/A,,Overcast,240,2014-04-01 15:10:00
10:30 AM,28.4,19.4,69,29.72,10.0,WSW,17.3,24.2,N/A,,Overcast,240,2014-04-01 15:30:00
10:50 AM,30.2,19.4,64,29.73,10.0,WSW,19.6,27.6,N/A,,Overcast,240,2014-04-01 15:50:00
11:10 AM,30.2,19.4,64,29.73,10.0,WSW,19.6,28.8,N/A,,Overcast,250,2014-04-01 16:10:00
11:30 AM,30.2,19.4,64,29.75,10.0,WSW,20.7,26.5,N/A,,Overcast,240,2014-04-01 16:30:00
11:50 AM,30.2,19.4,64,29.76,10.0,WSW,18.4,27.6,N/A,,Overcast,240,2014-04-01 16:50:00
12:10 PM,30.2,19.4,64,29.77,10.0,WSW,23.0,28.8,N/A,,Overcast,250,2014-04-01 17:10:00
12:30 PM,30.2,19.4,64,29.78,10.0,WSW,15.0,27.6,N/A,,Overcast,240,2014-04-01 17:30:00
12:50 PM,32.0,19.4,60,29.79,10.0,WSW,18.4,35.7,N/A,,Overcast,240,2014-04-01 17:50:00
1:10 PM,32.0,19.4,60,29.79,10.0,West,19.6,27.6,N/A,,Overcast,260,2014-04-01 18:10:00
1:30 PM,32.0,19.4,60,29.80,10.0,WSW,16.1,27.6,N/A,,Overcast,250,2014-04-01 18:30:00
1:50 PM,32.0,19.4,60,29.80,10.0,WSW,24.2,29.9,N/A,,Overcast,250,2014-04-01 18:50:00
2:10 PM,32.0,19.4,60,29.81,10.0,WSW,20.7,29.9,N/A,,Overcast,250,2014-04-01 19:10:00
2:30 PM,32.0,19.4,60,29.82,10.0,WSW,23.0,31.1,N/A,,Overcast,250,2014-04-01 19:30:00
2:50 PM,32.0,19.4,60,29.83,10.0,WSW,20.7,34.5,N/A,,Overcast,250,2014-04-01 19:50:00
3:10 PM,32.0,19.4,60,29.83,10.0,WSW,18.4,33.4,N/A,,Overcast,250,2014-04-01 20:10:00
3:30 PM,35.6,21.2,56,29.83,10.0,WSW,23.0,31.1,N/A,,Mostly Cloudy,250,2014-04-01 20:30:00
3:50 PM,35.6,21.2,56,29.83,10.0,West,15.0,25.3,N/A,,Scattered Clouds,260,2014-04-01 20:50:00
4:10 PM,37.4,21.2,52,29.84,10.0,West,24.2,33.4,N/A,,Scattered Clouds,260,2014-04-01 21:10:00
4:30 PM,39.2,21.2,49,29.84,10.0,West,19.6,29.9,N/A,,Clear,270,2014-04-01 21:30:00
4:50 PM,39.2,21.2,49,29.85,10.0,West,20.7,28.8,N/A,,Clear,280,2014-04-01 21:50:00
5:10 PM,39.2,21.2,49,29.86,10.0,West,24.2,31.1,N/A,,Clear,270,2014-04-01 22:10:00
5:30 PM,39.2,21.2,49,29.87,10.0,West,21.9,29.9,N/A,,Clear,270,2014-04-01 22:30:00
5:50 PM,39.2,21.2,49,29.89,10.0,West,20.7,26.5,N/A,,Clear,270,2014-04-01 22:50:00
6:10 PM,39.2,21.2,49,29.90,10.0,West,16.1,25.3,N/A,,Clear,270,2014-04-01 23:10:00
6:30 PM,37.4,23.0,56,29.91,10.0,West,15.0,21.9,N/A,,Clear,260,2014-04-01 23:30:00
6:50 PM,37.4,23.0,56,29.93,10.0,West,15.0,20.7,N/A,,Clear,270,2014-04-01 23:50:00
7:10 PM,37.4,23.0,56,29.95,10.0,West,10.4,-,N/A,,Clear,260,2014-04-02 00:10:00
7:30 PM,37.4,23.0,56,29.95,10.0,West,8.1,-,N/A,,Clear,270,2014-04-02 00:30:00
7:50 PM,35.6,23.0,60,29.96,10.0,West,6.9,-,N/A,,Clear,270,2014-04-02 00:50:00
8:10 PM,35.6,23.0,60,29.97,10.0,West,9.2,-,N/A,,Clear,260,2014-04-02 01:10:00
8:30 PM,35.6,23.0,60,29.98,10.0,West,9.2,-,N/A,,Clear,270,2014-04-02 01:30:00
8:50 PM,35.6,23.0,60,29.99,10.0,West,8.1,-,N/A,,Clear,270,2014-04-02 01:50:00
9:10 PM,35.6,23.0,60,30.00,10.0,West,5.8,-,N/A,,Clear,280,2014-04-02 02:10:00
9:30 PM,35.6,23.0,60,30.01,10.0,West,4.6,-,N/A,,Clear,280,2014-04-02 02:30:00
9:50 PM,33.8,23.0,65,30.01,10.0,WNW,4.6,-,N/A,,Clear,290,2014-04-02 02:50:00
10:10 PM,33.8,23.0,65,30.01,10.0,WNW,6.9,-,N/A,,Clear,300,2014-04-02 03:10:00
10:30 PM,33.8,23.0,65,30.02,10.0,NW,4.6,-,N/A,,Clear,310,2014-04-02 03:30:00
10:50 PM,33.8,23.0,65,30.03,10.0,WNW,3.5,-,N/A,,Clear,300,2014-04-02 03:50:00
11:10 PM,33.8,23.0,65,30.03,10.0,WNW,4.6,-,N/A,,Clear,300,2014-04-02 04:10:00
11:30 PM,32.0,23.0,69,30.05,10.0,West,5.8,-,N/A,,Clear,270,2014-04-02 04:30:00
11:50 PM,32.0,23.0,69,30.07,10.0,West,4.6,-,N/A,,Clear,260,2014-04-02 04:50:00